User: anonymous   Login
Location: Unspecified
(0.0000°N, 0.0000°E)
Time: 07:31:00
(UTC+00:00)
Language:

Aureole 3 - Orbit

View from above orbital plane
View from above orbital plane
View from above satellite
View from above satellite

Ground track
Ground track

The orbit data is extracted from the following two-line orbital elements,

1 12848U 81094A   18262.94621423 +.00000522 +00000-0 +30137-4 0  9992
2 12848 082.4802 245.6550 0596964 220.0749 135.4937 14.23910091854985
Epoch (UTC): 19 September 2018 22:42:32
Eccentricity: 0.0596964
inclination: 82.4802°
perigee height: 383 km
apogee height: 1241 km
right ascension of ascending node: 245.6550°
argument of perigee: 220.0749°
revolutions per day: 14.23910091
mean anomaly at epoch: 135.4937°
orbit number at epoch: 85498

The dashed part of the orbit path shows where the satellite is in the earth's shadow,  

DLR